www.pogodaiklimat.ru
ПОГОДА на Базе ВВС Муир
Время
и дата
05:36 15.08
05:37 15.08
05:42 15.08
05:56 15.08
06:36 15.08
06:56 15.08
07:15 15.08
07:56 15.08
07:59 15.08
08:07 15.08
08:16 15.08
08:56 15.08
09:56 15.08
10:56 15.08
11:56 15.08
12:56 15.08
13:56 15.08
14:56 15.08
15:56 15.08
16:56 15.08
17:56 15.08
18:56 15.08
19:56 15.08
20:01 15.08
20:51 15.08
20:56 15.08
21:56 15.08
22:56 15.08
23:56 15.08
00:56 16.08
01:56 16.08
02:56 16.08
03:56 16.08
04:56 16.08
05:56 16.08
06:56 16.08
07:56 16.08
08:56 16.08
09:56 16.08
10:56 16.08
11:56 16.08
12:56 16.08
13:56 16.08
14:56 16.08
15:56 16.08
16:56 16.08
17:56 16.08
18:56 16.08
Ветер
(напр.,м/с)
Видим. Явления Облачность Т
(С)
Тd
(С)
f
(%)
Тe
(С)
Тes
(С)
Комфортность P
(гПа)
Po
(гПа)
Тmin
(С)
Tmax
(С)
R
(мм)
R24
(мм)
S
(см)
штиль 0 16 км ясно +17.0 +16.0 94 +17 +17 1015.6 997.6
штиль 0 16 км слабая морось 2/0 3000 м
[Ac]
+17.0 +16.0 94 +17 +17 1015.6 997.6
штиль 0 16 км 2/0 3000 м
[Ac]
+17.0 +16.0 94 +17 +17 1015.6 997.6
штиль 0 16 км 10/2 750 м
[Ac]
+17.2 +16.0 93 +17 +17 1015.6 997.6
штиль 0 16 км слабый дождь 10/2 750 м
[Ac]
+18.0 +16.0 88 +18 +18 1015.6 997.6
штиль 0 16 км слабый дождь 10/5 750 м
[Ac]
+17.9 +16.4 91 +18 +18 1015.9 998.0 +17.1 +19.2 0.5 0.5
штиль 0 16 км 10/5 750 м
[Ac]
+18.0 +17.0 94 +18 +19 1015.9 998.0
штиль 0 16 км 10/5 750 м
[Ac]
+18.8 +16.4 86 +20 +21 1015.9 998.0
штиль 0 16 км слабый дождь 10/5 750 м
[Ac]
+19.0 +17.0 88 +20 +21 1015.9 998.0
штиль 0 16 км 10/5 750 м
[Ac]
+19.0 +16.0 83 +20 +22 1016.3 998.3
штиль 0 16 км 10/5 270 м
[Ac]
+19.0 +16.0 83 +20 +22 1016.3 998.3
штиль 0 16 км 10/2 270 м
[Ac]
+19.8 +16.2 80 +22 +25 комфорт 1015.9 998.0
штиль 0 16 км 8/2 540 м
[Ac]
+21.9 +15.2 66 +25 +32 комфорт 1015.9 998.0
штиль 0 16 км 10/2 750 м
[Ac]
+22.5 +13.8 58 +26 +33 жарко 1015.9 998.0
штиль 0 16 км 10/2 1050 м
[Ac]
+23.7 +13.5 53 +26 +35 жарко 1015.3 997.3
З 1 16 км 8/2 1200 м
[Ac]
+23.8 +13.0 51 +26 +35 жарко 1014.9 997.0 +18.0 +23.8
З 1 16 км 8/0 2250 м
[Ac]
+24.4 +13.9 52 +27 +33 жарко 1014.9 997.0
ЮЗ 1 16 км 8/0 2250 м
[Ac]
+24.9 +14.0 51 +27 +33 жарко 1014.2 996.3
штиль 0 16 км 8/0 2250 м
[Ac]
+24.8 +13.3 49 +27 +33 жарко 1013.9 996.0
Ю 1 16 км 8/0 2250 м
[Ac]
+25.0 +13.2 48 +27 +30 жарко 1013.9 996.0
СЗ 1 16 км 8/0 2400 м
[Ac]
+23.5 +15.8 62 +27 +28 душно 1014.2 996.3
С 1 16 км 8/5 1650 м
[Ac]
+22.3 +15.9 67 +26 +27 жарко 1014.6 996.6 +22.3 +25.9
В 1 0 м ливневые осадки 10/10 1500 м +21.9 +15.7 68 +26 +26 душно 1015.3 997.3
СВ 1 16 км слабый дождь 10/8 1500 м
[Ac]
+22.0 +16.0 69 +26 +26 душно 1015.3 997.3
С 2 16 км 10/2 1500 м
[Ac]
+20.0 +17.0 83 +23 +23 комфорт 1015.3 997.3
С 1 16 км 8/2 1500 м
[Ac]
+19.7 +16.5 82 +22 +22 комфорт 1015.3 997.3
С 1 16 км 8/0 3300 м
[Ac]
+20.0 +15.8 77 +23 +23 комфорт 1015.3 997.3 0.5
В 1 16 км 2/0 3600 м
[Ac]
+19.4 +15.2 77 +22 +22 комфорт 1015.6 997.6
СВ 1 16 км 10/0 3900 м
[Ac]
+19.5 +14.3 72 +22 +22 комфорт 1015.6 997.6
штиль 0 16 км 10/0 3600 м
[Ac]
+18.9 +15.0 78 +20 +20 1015.3 997.3 +18.9 +22.3 0.5
штиль 0 16 км 10/0 3600 м
[Ac]
+18.3 +15.2 82 +19 +19 1015.6 997.6
штиль 0 16 км 10/0 3600 м
[Ac]
+18.3 +15.2 82 +19 +19 1015.3 997.3
штиль 0 16 км 10/0 3600 м
[Ac]
+18.1 +14.8 81 +18 +18 1015.3 997.3
штиль 0 0 м н/о +17.8 +14.5 81 +18 +18 1015.3 997.3
штиль 0 16 км 10/0 3900 м
[Ac Ci]
+18.9 +13.9 73 +20 +20 1015.6 997.6
В 1 16 км 8/0 3900 м
[Ac Ci]
+20.5 +13.2 63 +23 +23 комфорт 1015.9 998.0 +17.2 +20.5 0.5
СВ 1 16 км 8/0 3900 м
[Ac Ci]
+21.8 +12.9 57 +24 +26 комфорт 1016.3 998.3
СВ 1 16 км 8/2 1500 м
[Ac Ci]
+23.2 +13.4 54 +26 +29 жарко 1016.6 998.6
ЮВ 1 16 км 8/0 2100 м
[Ac Ci]
+23.5 +14.2 56 +26 +32 жарко 1016.6 998.6
В 1 16 км 8/2 1500 м
[Ac Ci]
+25.5 +13.0 46 +27 +34 жарко 1016.6 998.6
В 1 16 км 8/2 1650 м
[Ac Ci]
+26.8 +11.7 39 +28 +36 жарко 1016.2 998.3
СВ 1 16 км 8/8 1950 м
[Ac]
+27.4 +10.1 34 +28 +31 жарко 1015.5 997.6 +20.6 +27.8
В 2 16 км 8/0 2100 м
[Ac]
+27.6 +8.4 30 +27 +32 жарко 1015.2 997.3
СВ 1 16 км 5/0 2100 м
[Ac]
+29.1 +8.2 27 +29 +36 жарко 1014.5 996.6
В 2 16 км 5/0 2400 м
[Ac]
+27.8 +8.6 30 +28 +32 жарко 1014.2 996.3
ЮВ 2 16 км 5/0 2400 м
[Ac]
+28.2 +7.9 28 +28 +30 жарко 1014.5 996.6
ЮВ 1 16 км 5/0 2100 м
[Ac]
+27.0 +7.9 30 +27 +28 жарко 1014.9 997.0
штиль 0 16 км 5/0 2100 м
[Ac]
+22.5 +11.2 49 +25 +25 комфорт 1015.2 997.3 +22.5 +29.5
Местоположение метеостанции Muir Army Airfield: широта 40.4333 долгота -76.5667 высота над уровнем моря 149 м.
В архиве по умолчанию представлена погода на Базе ВВС Муир за последние 1-2 суток. Обновление информации о фактической погоде в базе происходит ежечасно! Архивные данные за месяц целиком и за предыдущие месяцы Вы можете получить, выбрав интересующий диапазон дат из раскрывающегося списка и нажав кнопку "Ввод!".
Внимание! Архив погоды МЕТАР в базе сайта по станциям, не включенным в климатический монитор, хранится не более 60 дней. Нет смысла пытаться выбрать более раннюю дату.
*Определитесь, кто Вы:
Внимание! Время в таблицах - местное (без учета летнего времени). Для получения всемирного времени необходимо вычесть поправку, которая равна -5 ч.
Смотрите также архив погоды в соседних городах и на ближайших метеорологических станциях:
Партнеры нашего сайта:      
Пояснения к столбцам:
  • Ветер - указаны скорость ветра в м/с - средняя за 10 мин, порывы в срок и между сроками (в фигурных скобках) и направление, откуда дует ветер: С - северный,
  • СВ - северо-восточный, В - восточный, ЮВ - юго-восточный, Ю - южный, ЮЗ - юго-западный, З - западный, СЗ - северо-западный.
  • Видимость - горизонтальная дальность видимости в метрах или километрах. При видимости от 1 до 10 км при отсутствии осадков обычно наблюдается дымка, при ухудшении видимости до 1 км и менее - туман. В сухую погоду видимость может ухудшаться дымом, пылью или мглою.
  • Явления - указаны атмосферные явления, наблюдавшиеся в срок или в последний час перед сроком; фигурными скобками обозначены явления, наблюдавшиеся между сроками (за 1-3 часа до срока); квадратными скобками обозначены град или гололедные отложения с указанием их диаметра в мм.
  • Облачность - указаны через наклонную черту общая и нижняя облачность в баллах и высота нижней границы облаков в метрах; квадратными скобками обозначены формы облаков: Ci - перистые, Cs - перисто-слоистые, Cc - перисто-кучевые, Ac - высококучевые, As - высокослоистые, Sc - слоисто-кучевые, Ns - слоисто-дождевые, Cu - кучевые, Cb - кучево-дождевые. Подробнее классификацию облаков см. в Атласе облаков (PDF).
  • T - Температура воздуха - температура, измеренная на высоте 2 м над землей.
  • Td - Температура точки росы - температура, при понижении до которой содержащийся в воздухе водяной пар достигнет насыщения.
  • f - Относительная влажность воздуха - влажноcть воздуха, измеренная на высоте 2 м над землей.
  • Te - Эффективная температура - температура, которую ощущает одетый по сезону человек в тени. Характеристика душности погоды. При расчете учитывается влияние влажности воздуха и скорости ветра на теплоощущения человека.
  • Tes - Эффективная температура на солнце - температура, которую ощущает человек, с поправкой на солнечный нагрев. Характеристика знойности погоды. Зависит от высоты солнца над горизонтом, облачности и скорости ветра. Ночью, в пасмурную погоду, а также при ветре 12 м/с и более поправка равна нулю.
  • P - Атмосферное давление - приведенное к уровню моря атмосферное давление.
  • Po - Атмосферное давление - измеренное на уровне метеостанции атмосферное давление.
  • Tmin - Минимальная температура - минимум температуры воздуха на высоте 2 м над землей.
  • Tmax - Максимальная температура - максимум температуры воздуха на высоте 2 м над землей.
  • R - Количество осадков - Количество выпавших осадков за период времени, мм. При наведении курсора мыши на число - период времени, за который выпало указанное количество осадков.
  • R24 - Количество осадков - Количество выпавших осадков за 24 часа, мм.
  • S - Снежный покров - Высота снежного покрова, см. При наведении курсора мыши на число - состояние снежного покрова и степень покрытия местности в баллах.